This demonstration page uses our WeatherBlox Daily Observations layout. Learn more.

Left ArrowRight Arrow

Hourly Observations for October 2, 2020

Temp ( °F °C ) Dew Point ( °F °C ) Humidity (%) Winds ( mph kmh ) Pressure ( in mb ) Visibility ( mi km ) Precip ( " mm )
12:53 am 00:53 Clear 64 17.8 40 4.4 41 41 E 9 15 30.13 1020 10 16 0.00 0.00
1:53 am 01:53 Clear 63 17.2 39 3.9 41 41 E 12 19 30.12 1020 10 16 0.00 0.00
2:53 am 02:53 Clear 62 16.7 39 3.9 43 43 ENE 10 17 30.14 1021 10 16 0.00 0.00
3:53 am 03:53 Clear 60 15.6 39 3.9 46 46 ENE 9 15 30.13 1020 10 16 0.00 0.00
4:53 am 04:53 Clear 60 15.6 38 3.3 44 44 E 12 19 30.11 1020 10 16 0.00 0.00
5:53 am 05:53 Clear 59 15 38 3.3 46 46 E 10 17 30.12 1020 10 16 0.00 0.00
6:53 am 06:53 Clear 58 14.4 39 3.9 50 50 ESE 10 17 30.13 1020 10 16 0.00 0.00
7:53 am 07:53 Sunny 57 13.9 40 4.4 53 53 ESE 9 15 30.14 1021 10 16 0.00 0.00
8:53 am 08:53 Sunny 59 15 41 5 51 51 SE 13 20 30.14 1021 10 16 0.00 0.00
9:53 am 09:53 Sunny 63 17.2 43 6.1 48 48 SSE 13 20 30.15 1021 10 16 0.00 0.00
10:53 am 10:53 Sunny 68 20 44 6.7 42 42 SSE 14 22 30.14 1021 10 16 0.00 0.00
11:53 am 11:53 Sunny 71 21.7 45 7.2 39 39 SE 13 20 30.12 1020 10 16 0.00 0.00
12:53 pm 12:53 Sunny 75 23.9 44 6.7 33 33 SE 10 17 30.09 1019 10 16 0.00 0.00
1:53 pm 13:53 Sunny 80 26.7 42 5.6 26 26 SSE 12 19 30.05 1018 10 16 0.00 0.00
2:53 pm 14:53 Sunny 83 28.3 42 5.6 24 24 S 14 22 29.99 1016 10 16 0.00 0.00
3:53 pm 15:53 Sunny 85 29.4 40 4.4 20 20 SSE 10 17 29.96 1014 10 16 0.00 0.00
4:53 pm 16:53 Sunny 86 30 39 3.9 19 19 S 10 17 29.93 1013 10 16 0.00 0.00
5:53 pm 17:53 Sunny 86 30 38 3.3 18 18 S 10 17 29.91 1013 10 16 0.00 0.00
6:53 pm 18:53 Sunny 85 29.4 38 3.3 19 19 S 10 17 29.89 1012 10 16 0.00 0.00
7:53 pm 19:53 Clear 78 25.6 37 2.8 23 23 SSE 9 15 29.91 1013 10 16 0.00 0.00
8:53 pm 20:53 Clear 76 24.4 41 5 29 29 SE 12 19 29.91 1013 10 16 0.00 0.00
9:53 pm 21:53 Clear 75 23.9 41 5 29 29 SE 14 22 29.92 1013 10 16 0.00 0.00
10:53 pm 22:53 Clear 72 22.2 44 6.7 37 37 SE 14 22 29.92 1013 10 16 0.00 0.00
11:53 pm 23:53 Clear 70 21.1 46 7.8 42 42 SSE 16 26 29.91 1013 10 16 0.00 0.00

Powered by AerisWeather